When you browse on this site, cookies collect data to enhance your experience and personalize the content and advertising you see.
Visit our Privacy Policy to learn more. By continuing to use the site, you agree to this use of cookies and data.
  • In United Kingdom
  • List of Countries
  • For 7 days
  • Water Temperature
  • Weather Map
  • Weather Widgets
  • user-avatar
    Login

    Hourly Weather Haymana

    Today, 21 August, Wednesday

    Time Temperature Precipitation Wind Pressure Humidity
    00:00 +19°C° 0.3 mm 3 mps 664 mmHg 67%
    01:00 +19°C° 0.3 mm 3 mps 664 mmHg 70%
    02:00 +18°C° 0.3 mm 2 mps 664 mmHg 73%
    03:00 +18°C° 0.2 mm 2 mps 663 mmHg 75%
    04:00 +17°C° 0.2 mm 2 mps 663 mmHg 78%
    05:00 +17°C° 0.2 mm 2 mps 663 mmHg 80%
    06:00 +18°C° 0 mm 3 mps 663 mmHg 76%
    07:00 +18°C° 0 mm 3 mps 664 mmHg 72%
    08:00 +19°C° 0 mm 3 mps 664 mmHg 68%
    09:00 +20°C° 0.1 mm 3 mps 664 mmHg 62%
    10:00 +22°C° 0.1 mm 4 mps 664 mmHg 55%
    11:00 +23°C° 0.1 mm 4 mps 664 mmHg 49%
    12:00 +25°C° 0 mm 4 mps 664 mmHg 46%
    13:00 +25°C° 0 mm 4 mps 664 mmHg 43%
    14:00 +26°C° 0 mm 4 mps 664 mmHg 40%
    15:00 +26°C° 0 mm 3 mps 664 mmHg 39%
    16:00 +26°C° 0 mm 3 mps 664 mmHg 38%
    17:00 +26°C° 0 mm 3 mps 663 mmHg 38%
    18:00 +25°C° 0 mm 3 mps 663 mmHg 42%
    19:00 +24°C° 0 mm 3 mps 664 mmHg 46%
    20:00 +24°C° 0 mm 3 mps 664 mmHg 50%
    21:00 +22°C° 0 mm 3 mps 663 mmHg 53%
    22:00 +21°C° 0 mm 3 mps 663 mmHg 56%
    23:00 +21°C° 0 mm 3 mps 663 mmHg 60%

    Tomorrow, 22 August, Thursday

    Time Temperature Precipitation Wind Pressure Humidity
    00:00 +20°C° 0 mm 2 mps 663 mmHg 63%
    01:00 +19°C° 0 mm 2 mps 663 mmHg 66%
    02:00 +19°C° 0 mm 2 mps 663 mmHg 68%
    03:00 +18°C° 0 mm 2 mps 663 mmHg 71%
    04:00 +18°C° 0 mm 2 mps 663 mmHg 74%
    05:00 +17°C° 0 mm 2 mps 663 mmHg 77%
    06:00 +18°C° 0 mm 2 mps 663 mmHg 73%
    07:00 +19°C° 0 mm 2 mps 664 mmHg 69%
    08:00 +20°C° 0 mm 3 mps 664 mmHg 65%
    09:00 +21°C° 0 mm 3 mps 664 mmHg 59%
    10:00 +24°C° 0 mm 3 mps 665 mmHg 53%
    11:00 +25°C° 0 mm 4 mps 665 mmHg 46%
    12:00 +26°C° 0 mm 4 mps 665 mmHg 43%
    13:00 +27°C° 0 mm 4 mps 665 mmHg 40%
    14:00 +28°C° 0 mm 4 mps 665 mmHg 37%
    15:00 +27°C° 0 mm 4 mps 665 mmHg 38%
    16:00 +27°C° 0 mm 5 mps 664 mmHg 40%
    17:00 +26°C° 0 mm 5 mps 664 mmHg 42%
    18:00 +26°C° 0 mm 5 mps 664 mmHg 45%
    19:00 +25°C° 0 mm 5 mps 665 mmHg 47%
    20:00 +23°C° 0 mm 5 mps 665 mmHg 50%
    21:00 +22°C° 0 mm 4 mps 665 mmHg 53%
    22:00 +21°C° 0 mm 4 mps 665 mmHg 56%
    23:00 +21°C° 0 mm 3 mps 665 mmHg 59%

    Day after tomorrow, 23 August, Friday

    Time Temperature Precipitation Wind Pressure Humidity
    00:00 +20°C° 0 mm 3 mps 664 mmHg 61%
    01:00 +20°C° 0 mm 2 mps 664 mmHg 63%
    02:00 +19°C° 0 mm 2 mps 664 mmHg 65%
    03:00 +19°C° 0 mm 2 mps 664 mmHg 67%
    04:00 +18°C° 0 mm 2 mps 664 mmHg 68%
    05:00 +18°C° 0 mm 2 mps 664 mmHg 70%
    06:00 +19°C° 0 mm 2 mps 664 mmHg 63%
    07:00 +20°C° 0 mm 3 mps 664 mmHg 56%
    08:00 +21°C° 0 mm 3 mps 665 mmHg 50%
    09:00 +24°C° 0 mm 3 mps 665 mmHg 43%
    10:00 +26°C° 0 mm 4 mps 665 mmHg 37%
    11:00 +27°C° 0 mm 4 mps 666 mmHg 30%
    12:00 +28°C° 0 mm 4 mps 665 mmHg 28%
    13:00 +29°C° 0 mm 4 mps 665 mmHg 26%
    14:00 +30°C° 0 mm 5 mps 665 mmHg 24%
    15:00 +30°C° 0 mm 5 mps 665 mmHg 26%
    16:00 +30°C° 0 mm 6 mps 665 mmHg 28%
    17:00 +29°C° 0 mm 6 mps 665 mmHg 30%
    18:00 +28°C° 0 mm 6 mps 665 mmHg 34%
    19:00 +27°C° 0 mm 6 mps 665 mmHg 37%
    20:00 +26°C° 0 mm 5 mps 665 mmHg 40%
    21:00 +25°C° 0 mm 5 mps 665 mmHg 44%
    22:00 +23°C° 0 mm 4 mps 665 mmHg 47%
    23:00 +22°C° 0 mm 4 mps 665 mmHg 50%

    24 August, Saturday

    Time Temperature Precipitation Wind Pressure Humidity
    00:00 +22°C° 0 mm 3 mps 664 mmHg 53%
    01:00 +21°C° 0 mm 2 mps 664 mmHg 55%
    02:00 +20°C° 0 mm 2 mps 664 mmHg 57%
    03:00 +20°C° 0 mm 2 mps 664 mmHg 58%
    04:00 +19°C° 0 mm 2 mps 664 mmHg 58%
    05:00 +19°C° 0 mm 2 mps 664 mmHg 59%
    06:00 +20°C° 0 mm 2 mps 664 mmHg 52%
    07:00 +21°C° 0 mm 3 mps 665 mmHg 46%
    08:00 +23°C° 0 mm 4 mps 665 mmHg 39%
    09:00 +25°C° 0 mm 5 mps 666 mmHg 36%
    10:00 +27°C° 0 mm 5 mps 666 mmHg 33%
    11:00 +29°C° 0 mm 6 mps 666 mmHg 29%
    12:00 +29°C° 0 mm 6 mps 666 mmHg 27%
    13:00 +30°C° 0 mm 6 mps 666 mmHg 26%
    14:00 +32°C° 0 mm 6 mps 665 mmHg 24%
    15:00 +32°C° 0 mm 6 mps 665 mmHg 25%
    16:00 +32°C° 0 mm 6 mps 665 mmHg 25%
    17:00 +32°C° 0 mm 6 mps 665 mmHg 25%
    18:00 +29°C° 0 mm 5 mps 665 mmHg 29%
    19:00 +28°C° 0 mm 5 mps 664 mmHg 33%
    20:00 +26°C° 0 mm 4 mps 664 mmHg 37%
    21:00 +26°C° 0 mm 4 mps 664 mmHg 41%
    22:00 +25°C° 0 mm 3 mps 664 mmHg 45%
    23:00 +24°C° 0 mm 3 mps 664 mmHg 49%

    25 August, Sunday

    Time Temperature Precipitation Wind Pressure Humidity
    00:00 +22°C° 0 mm 3 mps 664 mmHg 52%
    01:00 +22°C° 0 mm 3 mps 663 mmHg 54%
    02:00 +21°C° 0 mm 2 mps 663 mmHg 57%
    03:00 +20°C° 0 mm 2 mps 663 mmHg 59%
    04:00 +20°C° 0 mm 2 mps 663 mmHg 60%
    05:00 +19°C° 0 mm 2 mps 663 mmHg 61%
    06:00 +21°C° 0 mm 3 mps 663 mmHg 55%
    07:00 +22°C° 0 mm 3 mps 664 mmHg 49%
    08:00 +23°C° 0 mm 4 mps 664 mmHg 43%
    09:00 +26°C° 0 mm 4 mps 664 mmHg 38%
    10:00 +27°C° 0 mm 4 mps 665 mmHg 34%
    11:00 +29°C° 0 mm 5 mps 665 mmHg 29%
    12:00 +30°C° 0 mm 5 mps 665 mmHg 27%
    13:00 +32°C° 0 mm 5 mps 664 mmHg 26%
    14:00 +32°C° 0 mm 5 mps 664 mmHg 24%
    15:00 +32°C° 0 mm 5 mps 664 mmHg 24%
    16:00 +32°C° 0 mm 5 mps 664 mmHg 24%
    17:00 +32°C° 0 mm 5 mps 663 mmHg 24%
    18:00 +30°C° 0 mm 4 mps 663 mmHg 27%
    19:00 +28°C° 0 mm 4 mps 663 mmHg 30%
    20:00 +27°C° 0 mm 3 mps 663 mmHg 32%
    21:00 +26°C° 0 mm 4 mps 663 mmHg 37%
    22:00 +25°C° 0 mm 4 mps 663 mmHg 41%
    23:00 +25°C° 0 mm 4 mps 663 mmHg 45%

    26 August, Monday

    Time Temperature Precipitation Wind Pressure Humidity
    00:00 +23°C° 0 mm 4 mps 663 mmHg 47%
    01:00 +22°C° 0 mm 3 mps 663 mmHg 49%
    02:00 +22°C° 0 mm 3 mps 663 mmHg 51%
    03:00 +21°C° 0 mm 2 mps 663 mmHg 53%
    04:00 +21°C° 0 mm 2 mps 663 mmHg 54%
    05:00 +20°C° 0 mm 2 mps 663 mmHg 55%
    06:00 +21°C° 0 mm 3 mps 663 mmHg 51%
    07:00 +22°C° 0 mm 3 mps 664 mmHg 47%
    08:00 +25°C° 0 mm 4 mps 665 mmHg 43%
    09:00 +26°C° 0 mm 4 mps 665 mmHg 39%
    10:00 +27°C° 0 mm 4 mps 665 mmHg 35%
    11:00 +29°C° 0 mm 5 mps 666 mmHg 32%
    12:00 +29°C° 0 mm 5 mps 666 mmHg 30%
    13:00 +30°C° 0 mm 5 mps 665 mmHg 28%
    14:00 +32°C° 0 mm 4 mps 665 mmHg 26%
    15:00 +32°C° 0 mm 4 mps 665 mmHg 25%
    16:00 +32°C° 0 mm 4 mps 665 mmHg 25%
    17:00 +32°C° 0 mm 4 mps 665 mmHg 25%
    18:00 +29°C° 0 mm 4 mps 665 mmHg 27%
    19:00 +28°C° 0 mm 4 mps 665 mmHg 29%
    20:00 +27°C° 0 mm 4 mps 665 mmHg 32%
    21:00 +26°C° 0 mm 4 mps 665 mmHg 34%
    22:00 +25°C° 0 mm 5 mps 665 mmHg 37%
    23:00 +23°C° 0 mm 6 mps 665 mmHg 39%
    Show more